[[{"header":{"parameterUnit":"m.s-1","parameterCategory":1,"la1":30.2991,"la2":30.254,"lo1":-89.0895,"lo2":-89.0444,"dy":0.0017,"dx":0.0017,"nx":28,"ny":28,"refTime":"2024-07-01T09:00:00:Z","depth":0,"parameterNumber":2,"parameterNumberName":"U-component_of_WINDS"},"data":[0,0,0,0,0,0,0,0,0,0,0,0,0,0,0,0,0,0,0,0,0,0,0,0,0,0,0,0,0,0,0,0,0,0,0,0,0,0,0,0,0,0,0,0,0,0,0,0,0,0,0,0,0,0,0,0,0,0,0.588,0.5879,0,0.5829,0.5828,0.5828,0.5749,0.5747,0.5746,0.5744,0.5695,0.5695,0.5695,0,0,0,0,0,0,0,0,0,0,0,0,0,0.591,0.591,0.588,0.5879,0.5879,0.5829,0.5828,0.5827,0.5749,0.5747,0.5745,0.5744,0.5695,0.5695,0.5695,0,0,0,0,0,0,0,0,0,0,0,0,0,0.5882,0.591,0.588,0.5833,0.5829,0.5829,0.5828,0.5827,0.5749,0.5747,0.5745,0.5743,0.5695,0.5695,0.5695,0.5737,0,0,0.5695,0.5695,0,0,0,0,0,0,0,0,0.5883,0.5881,0.5841,0.5837,0.5831,0.5793,0.582,0.5797,0.575,0.5779,0.5744,0.5742,0.5729,0.5726,0.5721,0.5735,0.5733,0.5695,0.5695,0.5695,0.5695,0,0,0,0,0,0,0,0.5886,0.5883,0.586,0.584,0.5835,0.5815,0.5809,0.5816,0.5767,0.5777,0.5771,0.5766,0.5726,0.5722,0.572,0.5732,0.5695,0.5695,0.5695,0.5695,0.5776,0.5778,0,0,0,0,0,0,0.5894,0.5885,0.5861,0.5858,0.5853,0.5816,0.5809,0.5807,0.5767,0.5758,0.5768,0.5762,0.5723,0.572,0.5718,0.5763,0.5695,0.5695,0.5695,0.5774,0.5776,0.5779,0,0,0,0,0,0,0.5895,0.5893,0.5863,0.587,0.5864,0.5818,0.5817,0.5808,0.5803,0.576,0.5751,0.5772,0.5721,0.5718,0.5732,0.5761,0.5695,0.5695,0.5771,0.5775,0.5778,0.5857,0,0,0,0,0,0,0.5896,0.5894,0.591,0.5871,0.5864,0.5879,0.5818,0.5808,0.5803,0.5795,0.5761,0.5754,0.5719,0.5733,0.5732,0.5759,0.5695,0.5769,0.5773,0.5777,0.5851,0.5862,0.5871,0,0,0,0,0,0.5898,0.5935,0.5911,0.5908,0.5883,0.5881,0.5877,0.5836,0.5805,0.5821,0.5793,0.5755,0.5758,0.5735,0.5734,0.5761,0.5767,0.5772,0.5776,0.5847,0.586,0.5871,0,0,0,0,0,0,0.598,0.5929,0.5902,0.5927,0.5909,0.5868,0.5886,0.5852,0.5842,0.5836,0.5785,0.5778,0.5799,0.5782,0.5757,0.5799,0.5756,0.5761,0.581,0.5822,0.5832,0.5836,0.5695,0,0,0,0,0,0.6,0.6002,0.5958,0.5985,0.5977,0.5933,0.5931,0.59,0.5879,0.5871,0.5844,0.5826,0.5822,0.5821,0.5816,0.5848,0.5839,0.5866,0.5876,0.5885,0.589,0.5904,0.5915,0.5795,0.5795,0.5795,0,0,0.6044,0.6016,0.6021,0.6001,0.5983,0.5986,0.5927,0.5934,0.5935,0.5872,0.5884,0.5864,0.584,0.5863,0.5872,0.5849,0.5921,0.5891,0.5898,0.5898,0.591,0.5921,0.5932,0.5798,0.5797,0.5797,0,0,0.6124,0.6104,0.6123,0.6106,0.6079,0.6049,0.6054,0.6017,0.6001,0.6011,0.5964,0.5965,0.5961,0.5945,0.5937,0.6009,0.5973,0.6008,0.6061,0.6076,0.6085,0.6093,0.6118,0.6127,0.6013,0.6014,0.6014,0,0.6182,0.6184,0.6138,0.6146,0.6138,0.608,0.6099,0.6084,0.6058,0.6053,0.6028,0.6019,0.6,0.6017,0.6035,0.603,0.6033,0.6012,0.6087,0.6095,0.6102,0.6125,0.6134,0.6018,0.6017,0.6017,0.6017,0,0.6256,0.6258,0.6277,0.6251,0.6245,0.6259,0.6214,0.6213,0.6183,0.6156,0.6166,0.614,0.6127,0.6129,0.61,0.6143,0.6129,0.6096,0.6052,0.6118,0.6139,0.6148,0.6024,0.6023,0.6021,0.602,0,0,0.6388,0.6334,0.6342,0.6328,0.6293,0.6294,0.6305,0.6291,0.6291,0.6274,0.6281,0.6277,0.6246,0.6236,0.6205,0.6217,0.6275,0.6183,0.6181,0.62,0.6318,0.6343,0.6354,0.6251,0.6252,0.6253,0.632,0,0.6461,0.6475,0.6433,0.6458,0.6458,0.6402,0.6411,0.639,0.6365,0.6362,0.6334,0.6332,0.6291,0.6284,0.6294,0.6266,0.6298,0.626,0.6257,0.6257,0.6264,0.6365,0.6391,0.6455,0.6328,0.6329,0.633,0,0.6549,0.6534,0.6559,0.652,0.6519,0.6528,0.651,0.6508,0.6483,0.6464,0.6452,0.6415,0.6422,0.6379,0.6388,0.6364,0.6359,0.6345,0.6346,0.6344,0.6298,0.6365,0.6475,0.6484,0.6342,0.6341,0.6341,0,0.6641,0.6628,0.664,0.6631,0.6586,0.6594,0.6576,0.6548,0.6542,0.6527,0.6523,0.651,0.6502,0.6493,0.6453,0.6426,0.6466,0.6421,0.645,0.6451,0.6461,0.6461,0.6572,0.646,0.646,0.6459,0.6459,0,0.6727,0.6744,0.6681,0.6689,0.6706,0.6656,0.6675,0.6651,0.6627,0.6629,0.658,0.6583,0.653,0.6527,0.6496,0.6508,0.6505,0.6489,0.6481,0.6493,0.6495,0.649,0.6484,0.6462,0.6461,0.6461,0.6461,0,0.6833,0.6792,0.6801,0.6758,0.6747,0.6762,0.6724,0.6729,0.67,0.6703,0.6701,0.6655,0.6649,0.6608,0.6593,0.6572,0.6595,0.6578,0.6603,0.6597,0.6629,0.6626,0.6739,0.6751,0.6633,0.6634,0.6635,0,0.689,0.6902,0.6859,0.6856,0.6839,0.6836,0.6829,0.678,0.6775,0.6746,0.6755,0.6744,0.6733,0.6726,0.6692,0.668,0.6661,0.6702,0.6659,0.6671,0.6661,0.6661,0.6661,0.6711,0.6713,0.6714,0.6715,0,0.6996,0.6974,0.6965,0.6949,0.6941,0.6926,0.6908,0.6909,0.6855,0.6851,0.6843,0.6835,0.6818,0.6808,0.679,0.6771,0.6734,0.6728,0.6734,0.6747,0.6761,0.6753,0.6627,0.6726,0.6725,0.6724,0.6724,0.6723,0.7078,0.7085,0.7055,0.7046,0.7027,0.7011,0.7013,0.6983,0.6976,0.6958,0.693,0.6926,0.6899,0.687,0.6854,0.685,0.6829,0.6838,0.684,0.6843,0.6849,0.6762,0.6847,0.6847,0.6846,0.6846,0.6846,0,0.718,0.7158,0.715,0.7125,0.7118,0.7082,0.706,0.7057,0.7053,0.7031,0.702,0.7011,0.7,0.6965,0.695,0.6954,0.6937,0.6952,0.6951,0.6947,0.687,0.6865,0.6966,0.6966,0.6966,0.6966,0.6966,0.6966,0.7232,0.7241,0.7216,0.7215,0.7192,0.7187,0.7177,0.7162,0.7143,0.7134,0.7125,0.7101,0.7073,0.7056,0.7045,0.7034,0.7031,0.7052,0.7036,0.6965,0.6953,0.6942,0.6938,0.7052,0.7052,0.7114,0.7114,0.7115]},{"header":{"parameterUnit":"m.s-1","parameterCategory":1,"la1":30.2991,"la2":30.254,"lo1":-89.0895,"lo2":-89.0444,"dy":0.0017,"dx":0.0017,"nx":28,"ny":28,"refTime":"2024-07-01T09:00:00:Z","depth":0,"parameterNumber":3,"parameterNumberName":"V-component_of_WINDS"},"data":[0,0,0,0,0,0,0,0,0,0,0,0,0,0,0,0,0,0,0,0,0,0,0,0,0,0,0,0,0,0,0,0,0,0,0,0,0,0,0,0,0,0,0,0,0,0,0,0,0,0,0,0,0,0,0,0,0,0,4.0586,4.0588,0,4.0714,4.0716,4.0717,4.0711,4.0709,4.0707,4.0705,4.0831,4.0836,4.0841,0,0,0,0,0,0,0,0,0,0,0,0,0,4.0332,4.0337,4.0586,4.0588,4.0589,4.0714,4.0716,4.0717,4.0711,4.0709,4.0706,4.0704,4.083,4.0836,4.0842,0,0,0,0,0,0,0,0,0,0,0,0,0,4.0449,4.0338,4.0586,4.0601,4.0604,4.0714,4.0716,4.0718,4.0711,4.0709,4.0706,4.0703,4.0828,4.0835,4.0843,4.0944,0,0,4.0866,4.0869,0,0,0,0,0,0,0,0,4.0443,4.0459,4.0598,4.0601,4.0604,4.0694,4.0672,4.0793,4.0712,4.067,4.0705,4.0702,4.0787,4.0798,4.0828,4.095,4.0955,4.0866,4.0871,4.0874,4.0876,0,0,0,0,0,0,0,4.0435,4.0453,4.0637,4.0599,4.0603,4.06,4.0614,4.0695,4.0742,4.0674,4.0674,4.0689,4.0789,4.0821,4.0831,4.0957,4.0866,4.0873,4.0878,4.0881,4.1167,4.117,0,0,0,0,0,0,4.0424,4.0446,4.0633,4.0641,4.0515,4.0607,4.0622,4.0667,4.0742,4.075,4.0691,4.0688,4.0809,4.0822,4.0835,4.0958,4.0874,4.0881,4.0886,4.1164,4.1168,4.1171,0,0,0,0,0,0,4.0418,4.044,4.0627,4.0544,4.0567,4.0614,4.0665,4.0671,4.0704,4.0755,4.0763,4.0716,4.0807,4.0825,4.0917,4.0962,4.0885,4.0892,4.116,4.1165,4.1169,4.1204,0,0,0,0,0,0,4.0411,4.0439,4.0478,4.0545,4.0572,4.0708,4.0668,4.0676,4.0717,4.0715,4.078,4.0788,4.0807,4.0906,4.0924,4.0971,4.0897,4.1156,4.1162,4.1168,4.1199,4.1209,4.1218,0,0,0,0,0,4.0402,4.0482,4.0481,4.0503,4.0623,4.0711,4.0726,4.0748,4.0721,4.0761,4.0794,4.0786,4.0955,4.0915,4.0936,4.0986,4.1154,4.1161,4.1167,4.1195,4.1207,4.1218,0,0,0,0,0,0,4.0419,4.0491,4.049,4.0595,4.0647,4.071,4.0761,4.076,4.082,4.0815,4.0837,4.0852,4.0944,4.0974,4.0929,4.1087,4.105,4.1062,4.1064,4.1076,4.1086,4.1076,4.0904,0,0,0,0,0,4.0435,4.0502,4.0561,4.0648,4.0674,4.0713,4.0752,4.0764,4.0819,4.084,4.088,4.0932,4.0996,4.1038,4.11,4.1204,4.1217,4.1248,4.1258,4.1265,4.1275,4.1331,4.1345,4.1194,4.1194,4.1193,0,0,4.0468,4.0516,4.0557,4.0652,4.0694,4.0762,4.0732,4.0804,4.0854,4.0851,4.094,4.0972,4.1031,4.1129,4.1174,4.1157,4.132,4.1274,4.128,4.1285,4.1339,4.1354,4.1366,4.1198,4.1197,4.1197,0,0,4.0563,4.0607,4.0684,4.0727,4.0791,4.0817,4.0835,4.0899,4.0919,4.101,4.1009,4.1068,4.1179,4.1221,4.1257,4.1369,4.1363,4.1388,4.1437,4.1492,4.1504,4.1514,4.1553,4.1567,4.1397,4.1398,4.1398,0,4.0596,4.07,4.0723,4.0796,4.0837,4.0839,4.0916,4.0956,4.1037,4.1065,4.1045,4.1184,4.1224,4.1332,4.1359,4.1389,4.1409,4.138,4.15,4.1511,4.1521,4.1559,4.1573,4.14,4.14,4.1399,4.1399,0,4.0736,4.0808,4.0861,4.0941,4.0989,4.1063,4.1096,4.1141,4.1149,4.1176,4.1268,4.1316,4.1388,4.1415,4.1423,4.1524,4.1511,4.1496,4.1459,4.1538,4.1573,4.1588,4.1404,4.1403,4.1402,4.1401,0,0,4.0844,4.0937,4.0956,4.0992,4.1063,4.1118,4.1193,4.1264,4.1302,4.1358,4.142,4.1514,4.15,4.1541,4.1554,4.1602,4.1686,4.158,4.1582,4.1597,4.1799,4.1809,4.1825,4.1683,4.1686,4.1688,4.1793,0,4.0946,4.108,4.1103,4.1218,4.1284,4.1287,4.1351,4.1401,4.1429,4.1487,4.1517,4.1583,4.1561,4.1585,4.1633,4.1665,4.1726,4.1658,4.1739,4.1742,4.1723,4.1844,4.1855,4.1952,4.1807,4.181,4.1811,0,4.1082,4.1143,4.1266,4.1329,4.1357,4.1415,4.1482,4.1539,4.1595,4.1611,4.1658,4.1665,4.174,4.1701,4.1805,4.1758,4.1793,4.1814,4.1818,4.1825,4.1781,4.1853,4.1983,4.1997,4.1834,4.1832,4.183,0,4.1147,4.126,4.1348,4.1379,4.1454,4.1495,4.1528,4.1582,4.1623,4.1682,4.1709,4.1775,4.1811,4.1861,4.1886,4.1855,4.1988,4.1951,4.2002,4.2001,4.2029,4.2026,4.2165,4.2053,4.2053,4.2053,4.2052,0,4.1258,4.1332,4.1378,4.1432,4.1516,4.1541,4.1623,4.1654,4.1703,4.1762,4.1768,4.1823,4.1852,4.1912,4.1931,4.2013,4.203,4.2044,4.2048,4.2043,4.2041,4.2065,4.2058,4.2056,4.2056,4.2055,4.2054,0,4.1344,4.1378,4.1474,4.1538,4.1556,4.1614,4.1668,4.172,4.1748,4.1822,4.1841,4.1884,4.1954,4.1984,4.2069,4.2082,4.2176,4.2176,4.2158,4.2159,4.2208,4.2203,4.2366,4.2388,4.2263,4.2264,4.2265,0,4.1411,4.1469,4.154,4.1581,4.1615,4.1681,4.1724,4.1751,4.1795,4.1864,4.1907,4.1978,4.2035,4.2146,4.2184,4.2249,4.225,4.2303,4.2259,4.2252,4.2249,4.2245,4.225,4.231,4.2311,4.2312,4.2313,0,4.1527,4.1541,4.1604,4.1672,4.1724,4.1779,4.1832,4.1865,4.19,4.1949,4.2021,4.2066,4.2154,4.2224,4.2291,4.2324,4.2324,4.2327,4.2342,4.2336,4.2323,4.233,4.2178,4.2322,4.2321,4.2321,4.232,4.232,4.1605,4.1657,4.1714,4.1784,4.1827,4.1877,4.1929,4.1964,4.2025,4.21,4.2112,4.2189,4.2243,4.2334,4.237,4.2429,4.2416,4.2438,4.2443,4.2448,4.2451,4.2315,4.2442,4.2441,4.2441,4.2441,4.2441,0,4.172,4.1758,4.1821,4.1897,4.1951,4.1949,4.2008,4.2053,4.2121,4.2172,4.223,4.2312,4.238,4.2423,4.2491,4.253,4.2532,4.2547,4.2544,4.2551,4.2459,4.2439,4.2545,4.2545,4.2545,4.2545,4.2544,4.2544,4.1786,4.1873,4.1894,4.2001,4.2038,4.2115,4.2149,4.2194,4.2236,4.2328,4.2385,4.2414,4.2462,4.2533,4.2595,4.2606,4.263,4.2645,4.2655,4.2568,4.2558,4.2547,4.2528,4.2651,4.2651,4.2742,4.2743,4.2743]}]]